Temp
-13 -14 -14 -14 -14 -14 -14 -14 -14 -14 -14 -14 -14 -14 -14 -14 -14 -14 -14 -14 -14 -14 -14 -14 -14 -14 -14 -14 -15 -15 -15 -15 -15 -15 -15 -15 -15 -15 -15 -15 -15 -15
-13 -14 -14 -14 -14 -14 -14 -14 -14 -14 -14 -14 -14 -14 -14 -14 -14 -14 -14 -14 -14 -14 -14 -14 -14 -14 -15 -15 -15 -15 -15 -15 -15 -15 -15 -16 -16 -16 -16 -16 -16 -16
-13 -14 -14 -14 -14 -14 -14 -14 -14 -14 -14 -14 -14 -14 -14 -14 -14 -14 -14 -14 -14 -14 -14 -14 -14 -15 -15 -15 -15 -15 -15 -15 -15 -16 -16 -16 -16 -16 -16 -16 -16 -16
-14 -14 -14 -14 -14 -14 -14 -14 -14 -14 -14 -14 -14 -14 -14 -14 -14 -14 -14 -14 -14 -14 -14 -15 -15 -15 -15 -15 -15 -15 -15 -16 -16 -16 -16 -16 -16 -16 -16 -16 -16 -16
-14 -14 -14 -14 -14 -14 -14 -14 -14 -14 -14 -14 -14 -14 -14 -14 -14 -14 -14 -14 -14 -14 -15 -15 -15 -15 -15 -15 -15 -15 -16 -16 -16 -16 -16 -16 -16 -16 -16 -16 -16 -16
-14 -14 -14 -14 -14 -14 -14 -14 -14 -14 -14 -14 -14 -14 -14 -14 -14 -14 -14 -14 -14 -15 -15 -15 -15 -15 -15 -15 -15 -16 -16 -16 -16 -16 -16 -16 -16 -16 -16 -16 -16 -16
-14 -14 -14 -14 -14 -14 -14 -14 -14 -14 -14 -14 -14 -14 -14 -14 -14 -14 -14 -14 -15 -15 -15 -15 -15 -15 -15 -15 -16 -16 -16 -16 -16 -16 -16 -16 -16 -16 -16 -16 -16 -16
-14 -14 -14 -14 -14 -14 -14 -14 -14 -14 -14 -14 -14 -14 -14 -14 -14 -14 -15 -15 -15 -15 -15 -15 -16 -16 -16 -16 -16 -16 -16 -16 -16 -16 -16 -16 -16 -16 -16 -17 -17 -17
-14 -14 -14 -14 -14 -14 -14 -14 -14 -14 -14 -14 -14 -14 -14 -14 -14 -15 -15 -15 -15 -15 -16 -16 -16 -16 -16 -16 -16 -16 -16 -16 -16 -16 -16 -16 -16 -16 -16 -17 -17 -17
-14 -14 -14 -14 -14 -14 -14 -14 -14 -14 -14 -14 -14 -14 -14 -15 -15 -15 -15 -15 -16 -16 -16 -16 -16 -16 -16 -16 -16 -16 -16 -16 -16 -16 -16 -16 -16 -17 -17 -17 -17 -17
-15 -14 -14 -14 -14 -14 -14 -14 -14 -14 -14 -14 -15 -15 -15 -15 -15 -15 -15 -16 -16 -16 -16 -16 -16 -16 -16 -16 -16 -17 -17 -16 -16 -16 -16 -16 -17 -17 -17 -17 -17 -17
-15 -15 -15 -15 -15 -15 -14 -14 -14 -15 -15 -15 -15 -15 -15 -15 -15 -16 -16 -16 -16 -16 -16 -16 -16 -16 -16 -16 -17 -17 -17 -16 -16 -16 -17 -17 -17 -17 -17 -17 -17 -17
-15 -15 -15 -15 -15 -15 -15 -15 -15 -15 -15 -15 -15 -15 -15 -15 -16 -16 -16 -16 -16 -16 -16 -16 -16 -16 -17 -17 -17 -17 -17 -17 -17 -17 -17 -17 -17 -17 -17 -17 -17 -18
-15 -15 -15 -15 -15 -15 -15 -15 -15 -15 -15 -15 -15 -15 -16 -16 -16 -16 -16 -16 -16 -16 -16 -16 -16 -17 -17 -17 -17 -17 -17 -17 -17 -17 -17 -17 -17 -17 -18 -18 -18 -18
-15 -15 -15 -15 -15 -15 -15 -15 -15 -15 -15 -16 -16 -16 -16 -16 -16 -16 -16 -16 -16 -16 -16 -17 -17 -17 -17 -17 -17 -17 -17 -17 -17 -17 -17 -17 -17 -18 -18 -18 -19 -19
-15 -15 -15 -15 -15 -15 -15 -16 -16 -16 -16 -16 -16 -16 -16 -16 -16 -16 -17 -17 -17 -17 -17 -17 -17 -17 -17 -17 -17 -17 -17 -17 -17 -17 -17 -18 -18 -18 -19 -19 -19 -20
-15 -15 -15 -15 -15 -16 -16 -16 -16 -16 -16 -16 -16 -16 -16 -16 -17 -17 -17 -17 -17 -17 -17 -17 -17 -17 -17 -17 -17 -17 -17 -17 -17 -17 -18 -18 -19 -19 -19 -20 -20 -20
-15 -15 -15 -16 -16 -16 -16 -16 -16 -16 -16 -16 -16 -16 -17 -17 -17 -17 -17 -17 -17 -17 -17 -17 -17 -17 -17 -17 -17 -17 -17 -17 -18 -18 -18 -19 -19 -20 -20 -20 -20 -20
-15 -15 -16 -16 -16 -16 -16 -16 -16 -17 -17 -17 -17 -17 -17 -17 -17 -17 -17 -17 -17 -17 -18 -18 -18 -18 -18 -17 -18 -18 -18 -18 -18 -18 -19 -19 -20 -20 -20 -20 -21 -21
-15 -16 -16 -16 -16 -16 -16 -17 -17 -17 -17 -17 -17 -17 -17 -17 -17 -17 -17 -17 -18 -18 -18 -18 -18 -18 -18 -18 -18 -18 -18 -18 -19 -19 -19 -20 -20 -20 -21 -21 -21 -21
-16 -16 -16 -16 -16 -17 -17 -17 -17 -17 -17 -17 -17 -17 -17 -17 -17 -18 -18 -18 -18 -18 -18 -18 -18 -18 -18 -18 -18 -18 -18 -19 -19 -19 -20 -20 -20 -21 -21 -21 -21 -21
-16 -16 -16 -16 -17 -17 -17 -17 -17 -17 -17 -17 -17 -17 -17 -18 -18 -18 -18 -18 -18 -18 -18 -18 -18 -18 -18 -18 -18 -19 -19 -19 -20 -20 -20 -20 -21 -21 -21 -21 -21 -21
-16 -16 -16 -17 -17 -17 -17 -17 -17 -17 -17 -17 -18 -18 -18 -18 -18 -18 -18 -18 -18 -18 -18 -18 -18 -18 -18 -18 -19 -19 -19 -20 -20 -20 -21 -21 -21 -21 -21 -21 -22 -22
-16 -16 -17 -17 -17 -17 -17 -17 -17 -17 -18 -18 -18 -18 -18 -18 -18 -18 -18 -18 -18 -18 -19 -19 -19 -19 -19 -19 -19 -19 -20 -20 -20 -21 -21 -21 -21 -21 -21 -22 -22 -22
-17 -17 -17 -17 -17 -17 -17 -17 -17 -18 -18 -18 -18 -18 -18 -18 -18 -18 -18 -18 -18 -19 -19 -19 -19 -19 -19 -19 -20 -20 -20 -20 -21 -21 -21 -22 -22 -22 -22 -22 -22 -22
-17 -17 -17 -17 -17 -17 -17 -17 -18 -18 -18 -18 -18 -18 -18 -18 -18 -18 -18 -18 -18 -19 -19 -19 -19 -19 -19 -20 -20 -20 -20 -21 -21 -22 -22 -22 -22 -22 -22 -22 -22 -22
Height
5819 5819 5819 5819 5818 5818 5818 5818 5818 5817 5817 5817 5816 5815 5815 5814 5812 5811 5809 5807 5805 5804 5802 5800 5798 5796 5794 5792 5790 5788 5787 5785 5783 5781 5779 5777 5774 5772 5770 5768 5766 5764
5816 5816 5816 5816 5816 5816 5815 5815 5815 5815 5815 5814 5813 5812 5811 5810 5808 5807 5805 5803 5801 5799 5797 5796 5794 5792 5790 5788 5786 5784 5782 5780 5778 5776 5774 5772 5770 5768 5765 5763 5761 5758
5814 5813 5813 5813 5813 5813 5813 5813 5813 5812 5812 5811 5810 5809 5808 5806 5805 5803 5801 5799 5797 5795 5793 5791 5789 5788 5786 5784 5782 5780 5778 5776 5774 5772 5770 5768 5765 5763 5761 5758 5755 5753
5811 5811 5811 5811 5811 5811 5810 5810 5810 5809 5809 5808 5807 5806 5804 5803 5801 5799 5797 5796 5794 5791 5789 5787 5785 5783 5781 5780 5778 5776 5774 5772 5770 5768 5765 5763 5761 5758 5756 5753 5750 5747
5809 5809 5809 5809 5809 5808 5808 5808 5807 5807 5806 5805 5804 5802 5801 5799 5797 5795 5794 5792 5789 5787 5785 5783 5781 5779 5777 5776 5774 5772 5770 5768 5765 5763 5761 5759 5756 5754 5751 5748 5745 5742
5808 5807 5807 5806 5806 5806 5805 5805 5805 5804 5803 5802 5800 5799 5797 5795 5793 5791 5789 5787 5785 5783 5781 5779 5777 5776 5774 5772 5770 5768 5766 5763 5761 5759 5757 5754 5752 5749 5746 5743 5739 5737
5805 5805 5804 5804 5804 5803 5803 5802 5802 5801 5800 5798 5797 5795 5793 5792 5790 5787 5785 5783 5781 5779 5778 5776 5774 5772 5770 5768 5766 5763 5761 5759 5757 5755 5752 5750 5747 5744 5741 5737 5733 5730
5803 5803 5802 5802 5801 5801 5800 5799 5799 5798 5796 5795 5793 5791 5790 5788 5786 5784 5782 5780 5778 5776 5774 5772 5770 5768 5766 5764 5761 5759 5757 5755 5753 5750 5748 5745 5742 5739 5736 5732 5728 5724
5801 5800 5800 5799 5798 5798 5797 5796 5795 5794 5792 5791 5789 5788 5786 5784 5782 5780 5778 5776 5774 5772 5770 5768 5766 5764 5762 5759 5757 5755 5753 5751 5749 5746 5743 5740 5737 5734 5731 5728 5723 5719
5797 5797 5796 5796 5795 5794 5793 5793 5791 5790 5789 5787 5786 5784 5782 5780 5778 5776 5774 5772 5770 5768 5766 5764 5762 5760 5758 5756 5754 5751 5749 5747 5744 5742 5739 5736 5732 5728 5725 5722 5718 5713
5794 5793 5793 5792 5792 5791 5790 5789 5788 5786 5785 5783 5782 5780 5778 5776 5774 5772 5770 5768 5766 5764 5762 5760 5758 5756 5754 5752 5750 5747 5745 5743 5740 5737 5734 5730 5727 5723 5720 5716 5712 5707
5791 5790 5790 5789 5788 5787 5786 5785 5784 5783 5781 5780 5778 5776 5774 5772 5770 5768 5766 5764 5762 5760 5758 5756 5754 5752 5750 5748 5746 5743 5741 5738 5735 5732 5729 5725 5721 5717 5714 5711 5707 5702
5788 5787 5786 5786 5785 5783 5782 5781 5780 5779 5778 5776 5774 5773 5771 5769 5766 5764 5762 5760 5759 5757 5755 5753 5751 5748 5746 5744 5742 5739 5736 5733 5730 5727 5724 5720 5716 5712 5708 5705 5701 5697
5784 5783 5783 5782 5781 5780 5779 5778 5776 5775 5774 5772 5771 5769 5767 5765 5763 5761 5759 5757 5755 5753 5751 5749 5747 5744 5742 5740 5737 5735 5732 5729 5725 5722 5719 5715 5711 5706 5702 5699 5695 5691
5781 5780 5779 5778 5777 5776 5775 5774 5773 5772 5770 5769 5767 5765 5763 5761 5759 5757 5755 5753 5751 5749 5747 5745 5743 5740 5738 5736 5733 5730 5728 5724 5721 5717 5714 5710 5706 5701 5697 5693 5689 5685
5777 5776 5776 5775 5774 5773 5772 5771 5769 5768 5767 5765 5763 5761 5759 5757 5755 5753 5751 5749 5747 5745 5743 5741 5739 5736 5734 5732 5729 5726 5723 5720 5716 5712 5709 5705 5701 5696 5692 5687 5683 5679
5773 5773 5772 5771 5770 5769 5768 5767 5765 5764 5763 5761 5759 5757 5755 5753 5752 5749 5747 5745 5743 5741 5739 5737 5735 5732 5730 5728 5725 5722 5719 5715 5712 5708 5704 5700 5695 5691 5687 5682 5678 5674
5769 5769 5768 5767 5766 5765 5764 5763 5762 5760 5759 5757 5756 5754 5752 5750 5748 5746 5744 5742 5740 5738 5735 5733 5731 5729 5726 5724 5721 5718 5714 5711 5707 5703 5699 5695 5691 5686 5682 5677 5673 5669
5765 5764 5764 5763 5762 5761 5760 5759 5758 5756 5755 5753 5752 5750 5748 5746 5744 5742 5740 5738 5736 5734 5732 5730 5727 5725 5722 5720 5717 5714 5710 5706 5703 5699 5695 5691 5686 5682 5678 5673 5669 5665
5761 5760 5759 5759 5758 5757 5756 5755 5754 5752 5751 5750 5748 5746 5744 5742 5740 5739 5737 5735 5733 5730 5728 5726 5724 5721 5719 5716 5713 5710 5706 5702 5698 5695 5690 5687 5683 5678 5674 5669 5665 5661
5757 5756 5755 5755 5754 5753 5752 5751 5750 5749 5747 5746 5744 5742 5741 5739 5737 5735 5733 5731 5729 5727 5725 5722 5720 5717 5715 5712 5709 5706 5702 5698 5694 5691 5686 5682 5679 5675 5670 5666 5662 5658
5753 5752 5752 5751 5750 5749 5748 5747 5746 5745 5743 5742 5740 5739 5737 5735 5733 5732 5730 5728 5726 5724 5721 5719 5717 5714 5711 5708 5705 5702 5698 5694 5691 5687 5683 5679 5675 5671 5667 5663 5659 5655
5749 5748 5748 5747 5746 5745 5744 5743 5742 5741 5740 5738 5737 5735 5734 5732 5730 5728 5726 5724 5722 5720 5718 5716 5713 5711 5708 5705 5701 5698 5694 5690 5687 5683 5679 5675 5672 5668 5664 5660 5656 5652
5745 5744 5744 5743 5742 5741 5740 5740 5739 5737 5736 5735 5733 5732 5730 5729 5727 5725 5723 5721 5719 5717 5715 5712 5710 5707 5704 5701 5698 5694 5690 5686 5683 5679 5676 5672 5668 5665 5662 5658 5654 5649
5741 5740 5739 5739 5738 5737 5737 5736 5735 5734 5733 5731 5730 5728 5727 5725 5723 5721 5719 5717 5715 5713 5711 5709 5706 5704 5701 5697 5694 5690 5687 5683 5680 5676 5673 5669 5666 5662 5658 5655 5651 5647
5736 5736 5735 5734 5734 5733 5733 5732 5731 5730 5729 5728 5726 5725 5723 5722 5720 5718 5716 5714 5711 5709 5707 5705 5703 5700 5697 5694 5690 5687 5684 5681 5677 5674 5670 5667 5663 5660 5656 5652 5648 5644
Wind_Speed
14 15 15 16 16 16 16 16 17 18 19 20 21 23 24 26 28 30 31 33 34 35 37 38 39 39 40 40 40 40 40 41 41 41 42 43 43 44 44 45 45 46
15 16 16 16 17 17 17 17 19 20 20 22 23 25 27 29 31 32 34 35 36 37 38 39 39 39 39 39 39 40 40 41 41 42 42 43 44 44 45 46 46 47
16 16 16 17 17 17 18 19 20 21 22 24 26 28 30 32 33 34 35 36 37 38 38 38 38 38 38 39 39 40 40 41 41 42 43 43 44 45 46 46 47 47
16 16 16 17 17 18 19 21 22 24 25 27 29 31 32 34 35 36 36 37 37 38 38 38 37 38 38 38 39 40 40 41 42 42 43 44 45 46 46 46 46 46
17 17 18 18 19 20 22 23 25 27 28 30 31 32 34 35 36 36 37 38 38 38 38 37 38 38 38 39 40 41 41 42 43 43 44 44 45 45 45 45 46 47
19 20 20 21 22 23 25 26 27 29 30 31 32 34 35 36 37 37 38 38 38 38 38 38 38 38 39 40 40 41 41 42 42 43 43 43 44 44 45 46 47 48
22 22 22 23 24 25 27 28 29 30 31 32 33 35 36 37 37 37 38 38 38 38 38 38 38 39 39 39 39 40 40 40 41 41 42 43 44 45 46 48 50 51
23 23 24 25 26 27 29 30 31 32 33 33 34 35 36 36 37 37 37 37 37 37 37 37 38 38 38 38 38 38 39 39 40 41 42 43 45 47 48 50 51 52
23 24 26 27 28 30 31 32 33 33 34 34 35 35 36 36 37 37 37 37 37 37 36 36 37 37 37 37 37 37 38 39 40 41 43 45 47 49 50 51 52 53
25 27 28 29 31 32 33 34 34 35 35 35 35 36 36 37 37 37 37 36 36 36 36 36 36 36 36 36 37 37 38 39 41 43 45 47 48 50 50 51 52 53
28 29 30 31 33 34 35 35 35 35 35 35 36 36 36 36 37 37 36 36 36 35 36 36 35 35 35 36 36 37 38 40 42 44 46 48 49 50 51 52 53 54
29 31 32 33 34 35 36 36 36 36 36 36 36 36 36 36 37 36 36 35 35 35 35 35 34 35 36 36 36 37 39 42 44 46 47 49 50 52 52 53 54 55
31 33 34 34 36 36 37 37 36 37 36 36 37 36 36 36 36 36 35 34 34 34 34 34 35 36 36 36 36 38 41 43 45 47 49 50 52 53 54 54 55 55
33 35 35 36 37 37 38 37 37 37 37 37 37 36 36 36 35 35 34 34 34 34 34 35 36 37 36 36 37 40 43 45 47 48 50 51 53 53 54 54 54 54
35 36 36 37 38 38 38 37 37 37 38 37 37 36 36 35 35 34 34 34 34 35 36 37 37 37 37 37 39 42 44 46 48 49 51 52 53 53 53 53 52 52
36 37 37 38 38 38 38 37 38 38 38 37 36 36 36 35 34 34 34 34 35 36 37 37 38 37 37 38 41 43 45 47 49 50 52 52 52 52 52 51 51 50
36 37 38 38 38 38 37 37 38 39 38 37 36 36 36 35 35 35 35 36 36 37 38 38 38 38 38 40 42 44 46 48 49 51 52 51 51 50 50 50 49 49
37 37 38 38 38 37 37 38 39 39 38 36 35 35 36 36 35 36 36 37 37 37 38 38 38 38 39 41 43 46 47 48 49 50 50 50 49 48 48 48 48 48
37 37 37 37 37 37 38 39 39 38 37 36 35 36 36 36 36 36 37 37 37 38 38 38 39 39 41 42 45 46 47 48 49 49 48 48 47 46 46 47 47 46
37 37 37 37 37 38 38 39 39 37 36 36 36 36 36 37 37 37 37 37 37 38 38 39 39 40 42 44 46 46 47 47 47 47 46 46 45 45 45 45 44 44
36 36 37 37 38 38 39 39 38 37 36 36 36 36 37 37 37 37 37 37 38 38 39 39 40 41 43 44 45 46 46 46 45 45 44 44 44 44 43 43 42 43
36 36 37 38 38 39 39 38 37 36 36 37 37 37 38 38 37 37 37 38 38 39 39 40 41 42 43 44 44 44 44 44 44 43 43 43 42 41 41 41 41 41
36 37 38 38 39 39 39 38 37 37 37 38 38 38 38 38 38 38 38 38 39 39 40 40 41 42 42 42 42 42 43 42 42 42 41 40 40 39 39 39 40 40
37 37 38 39 39 39 38 37 37 37 38 39 39 39 39 39 38 39 39 38 39 39 40 41 41 41 41 41 41 41 41 41 41 40 39 38 37 37 38 38 38 39
37 38 39 39 39 39 38 37 37 38 39 40 40 40 40 39 39 39 39 39 39 40 40 40 39 39 39 39 39 39 39 39 38 37 36 36 36 36 37 37 38 39
38 38 39 39 39 39 38 38 38 39 40 41 41 41 40 40 41 40 39 39 40 40 39 38 37 37 37 37 37 37 37 36 35 34 34 34 35 35 36 36 37 39
Wind_Direction
274 273 274 276 280 283 285 285 285 286 289 293 295 298 299 301 302 302 303 303 304 304 304 304 303 302 302 302 302 302 303 304 304 305 305 305 305 305 304 304 303 303
282 282 280 280 282 285 287 287 287 289 293 296 300 302 304 305 305 305 305 305 306 306 305 304 303 303 303 303 303 304 305 305 306 306 306 306 305 305 305 304 304 303
288 288 287 287 287 287 287 287 289 293 298 302 305 307 307 307 307 306 306 306 305 304 304 303 303 303 304 305 305 306 307 307 307 306 306 306 305 305 304 304 304 303
291 291 291 291 291 290 291 294 298 302 305 307 308 308 308 307 306 305 305 305 304 303 303 303 304 304 305 306 307 307 307 307 306 306 306 305 305 305 305 305 305 305
292 293 293 294 296 297 299 301 304 306 306 307 307 307 306 305 305 305 305 304 304 303 304 304 305 306 306 307 307 307 307 306 305 305 305 305 305 306 306 307 306 306
292 295 297 299 300 300 301 302 303 304 305 306 306 305 305 304 304 305 305 305 304 304 304 305 305 306 306 307 307 306 306 306 306 306 306 307 307 308 308 308 307 307
292 295 297 298 299 298 299 300 302 304 304 304 304 303 303 304 304 305 305 304 304 304 304 304 305 306 306 306 306 306 307 307 308 308 309 309 309 309 309 308 308 308
289 292 295 296 296 297 297 299 301 302 302 302 302 302 303 304 304 305 304 304 303 303 304 304 305 306 306 307 307 308 309 309 310 310 311 310 310 309 309 309 309 308
287 290 292 293 294 295 296 298 300 301 301 301 301 302 304 305 305 305 304 304 304 304 305 305 306 306 307 307 308 309 310 311 311 311 311 310 310 310 310 310 309 309
287 289 291 292 293 294 296 298 299 300 300 300 301 303 304 305 305 304 304 304 304 305 305 306 306 307 307 308 309 310 311 311 312 312 312 312 312 312 311 311 310 310
288 289 291 292 293 294 295 297 298 298 299 300 301 303 304 305 305 305 305 304 304 305 305 306 306 307 308 309 310 310 311 312 313 314 315 314 313 312 312 312 311 310
288 289 290 291 292 293 295 296 296 296 298 300 302 303 304 305 305 305 305 304 304 305 305 306 306 307 308 309 309 310 312 314 315 316 316 315 314 313 312 312 311 311
287 288 289 289 290 292 294 294 294 295 298 300 302 303 304 305 305 305 305 304 304 305 305 306 306 308 308 308 308 310 313 315 316 317 317 315 314 313 312 312 311 311
285 286 287 288 289 291 292 293 293 295 298 300 301 303 304 305 305 305 305 305 305 305 305 306 307 308 307 307 309 312 314 316 316 316 316 315 313 312 312 312 312 313
282 283 285 286 288 289 290 291 292 295 297 299 300 303 304 305 305 305 305 305 305 305 305 306 307 307 307 307 309 312 314 315 315 315 315 314 313 313 313 314 314 315
279 281 282 284 285 287 288 289 292 294 296 298 301 303 304 305 305 305 306 306 305 305 306 307 307 307 306 307 310 312 313 314 314 314 314 314 314 314 315 316 316 317
276 278 280 282 283 285 287 289 292 294 296 298 302 303 304 304 304 305 306 306 305 306 306 307 307 306 306 307 310 312 313 314 314 314 314 314 315 316 317 318 319 319
274 276 279 281 282 284 287 290 292 294 296 299 302 303 304 304 304 305 306 305 305 306 306 306 305 305 305 307 310 312 313 314 315 314 315 316 317 319 319 320 321 322
273 276 278 280 282 285 287 289 291 294 297 300 302 303 303 304 305 305 306 305 305 306 306 305 304 304 305 308 311 313 314 314 315 315 317 318 319 320 321 322 323 324
274 276 278 280 282 284 287 289 291 293 297 300 301 302 303 304 305 306 306 305 305 305 305 304 304 305 308 310 312 314 314 314 315 317 318 320 321 322 323 324 325 326
274 276 278 280 282 284 286 288 290 293 297 299 300 301 302 303 305 306 306 305 305 305 305 305 306 308 310 312 313 313 314 315 317 319 320 321 323 324 325 326 327 328
275 276 278 279 281 283 285 287 289 292 296 298 299 300 301 303 304 305 305 305 304 305 306 306 308 310 311 312 313 314 315 317 319 320 322 323 325 327 328 328 329 330
275 276 276 278 280 282 284 286 288 292 295 297 299 300 301 303 304 305 305 305 305 306 307 308 309 310 311 312 313 315 317 319 321 322 324 325 327 329 330 330 331 332
273 274 275 277 279 281 283 285 288 291 295 297 299 301 302 303 304 305 304 304 305 306 307 308 309 310 311 312 314 317 319 321 322 324 326 328 329 331 332 333 334 334
271 272 275 277 278 280 282 284 287 290 293 296 299 301 302 303 303 304 304 304 304 304 305 308 309 310 312 314 317 319 321 322 324 326 328 330 332 333 335 336 337 338
270 272 274 276 278 280 281 283 287 290 292 295 297 300 302 303 302 303 302 301 301 302 305 308 309 311 314 317 319 321 322 323 325 328 330 333 335 336 338 339 341 343